GW5858 Weather Reports


time (UTC)temp
C
wind
direction
speed
KPH
gust
KPH
rain 1hr
cm
rain 24hr
cm
rain mn
cm
humidity
%
barometer
mb
20260504014522 10 301 11.3 20.9 0.00 0.00 0.00 62 1009.6
20260504013020 11 296 8.0 20.9 0.00 0.00 0.00 60 1009.7
20260504011523 10 336 4.8 20.9 0.00 0.00 0.00 61 1009.8
20260504010020 10 292 6.4 24.1 0.00 0.00 0.00 62 1009.8
20260504004533 10 352 6.4 22.5 0.00 0.00 0.00 62 1009.6
20260504003011 10 334 4.8 17.7 0.00 0.00 0.00 67 1009.6
20260504001521 9 5 9.7 17.7 0.00 0.00 0.00 67 1009.7
20260504000021 9 308 3.2 12.9 0.00 0.00 0.00 68 1009.8
20260503234521 9 328 3.2 16.1 0.00 0.00 0.00 69 1009.9
20260503233024 9 341 4.8 16.1 0.00 0.00 0.00 70 1009.8
20260503231521 9 9 3.2 16.1 0.00 0.00 0.00 70 1010.0
20260503230018 9 307 3.2 20.9 0.00 0.00 0.00 68 1010.1
20260503224514 10 329 6.4 25.7 0.00 0.00 0.00 67 1010.2
20260503223013 10 301 4.8 22.5 0.00 0.00 0.00 67 1010.3
20260503221507 10 327 8.0 24.1 0.00 0.00 0.00 66 1010.6
20260503220022 10 334 4.8 22.5 0.00 0.00 0.00 65 1010.3
20260503214523 10 5 9.7 22.5 0.00 0.00 0.00 64 1010.2
20260503213023 11 252 9.7 25.7 0.00 0.00 0.00 63 1010.0
20260503211529 11 268 8.0 27.4 0.00 0.00 0.00 62 1010.0
20260503210020 10 318 9.7 29.0 0.00 0.00 0.00 63 1010.1
20260503204512 10 267 9.7 27.4 0.00 0.00 0.00 63 1010.2
20260503203007 11 333 6.4 25.7 0.00 0.00 0.00 62 1010.4
20260503201522 11 306 14.5 33.8 0.00 0.00 0.00 58 1010.6
20260503200023 11 302 12.9 27.4 0.00 0.00 0.00 56 1010.8
20260503194522 12 341 8.0 29.0 0.00 0.00 0.00 55 1011.0
20260503193034 12 262 12.9 32.2 0.00 0.00 0.00 54 1011.1
20260503191517 12 256 16.1 33.8 0.00 0.00 0.00 52 1011.6
20260503190024 12 331 14.5 32.2 0.00 0.00 0.00 53 1011.6
20260503184510 12 256 9.7 27.4 0.00 0.00 0.00 51 1011.6
20260503183022 12 315 12.9 30.6 0.00 0.00 0.00 47 1011.6
20260503181525 13 344 8.0 20.9 0.00 0.00 0.00 42 1011.9
20260503180024 12 274 8.0 24.1 0.00 0.00 0.00 43 1012.2
20260503174521 12 232 4.8 25.7 0.00 0.00 0.00 42 1012.4
20260503173021 12 273 8.0 25.7 0.00 0.00 0.00 47 1012.8
20260503171514 10 330 12.9 22.5 0.00 0.00 0.00 53 1013.1
20260503081531 0 270 0.0 0.0 0.00 0.00 0.00 89 1014.6
20260503071531 1 270 0.0 0.0 0.00 0.00 0.00 87 1014.5
20260503054530 1 270 0.0 0.0 0.00 0.00 0.00 86 1014.9
20260503053020 1 270 0.0 0.0 0.00 0.00 0.00 85 1015.0
20260503051519 1 270 0.0 0.0 0.00 0.00 0.00 85 1015.0
20260503050016 2 270 0.0 0.0 0.00 0.00 0.00 84 1015.1
20260503044515 2 270 0.0 0.0 0.00 0.00 0.00 82 1015.2
20260503043010 2 270 0.0 0.0 0.00 0.00 0.00 81 1015.4
20260503041508 3 270 0.0 0.0 0.00 0.00 0.00 79 1015.3
20260503040005 3 270 0.0 3.2 0.00 0.00 0.00 78 1015.4
20260503034519 4 270 0.0 3.2 0.00 0.00 0.00 76 1015.5
20260503033026 4 270 0.0 4.8 0.00 0.00 0.00 74 1015.5
20260503031517 5 270 3.2 3.2 0.00 0.00 0.00 72 1015.5
20260503030014 5 270 0.0 4.8 0.00 0.00 0.00 70 1015.5
20260503024512 5 273 0.0 3.2 0.00 0.00 0.00 69 1015.6
20260503023007 5 352 0.0 3.2 0.00 0.00 0.00 69 1015.8
20260503021504 5 352 0.0 3.2 0.00 0.00 0.00 67 1015.9
20260503020020 5 17 0.0 4.8 0.00 0.00 0.00 69 1016.0